Theta_e
313 312 314 313 312 313 315 316 317 315 314 314 312 312 312 310 308 307 306 305 304 302 301 302 303 307 310 312 313 315 315 314 315 315 314 312 309 308 309 310 309 309 308 308
314 314 313 314 313 314 314 315 315 314 313 312 313 313 312 312 309 309 309 307 306 300 299 301 303 307 309 310 311 313 313 314 312 312 310 309 307 303 304 303 304 305 305 305
315 316 315 315 316 316 316 316 315 316 314 313 312 312 312 311 311 309 309 309 307 302 300 299 302 306 308 308 310 312 311 308 307 309 308 303 300 298 298 298 298 298 298 297
314 315 316 315 316 315 316 315 315 316 316 316 313 318 315 315 314 311 310 306 307 301 300 300 301 304 307 308 309 311 309 307 307 307 306 305 302 296 293 294 292 292 292 291
315 315 314 315 316 314 315 315 316 315 315 317 316 316 316 315 316 316 312 308 305 301 300 299 300 303 306 306 307 308 306 306 306 306 305 303 298 295 291 290 290 289 289 289
313 312 312 313 311 313 311 314 314 314 315 318 316 317 317 318 317 316 311 305 303 300 299 298 300 303 304 304 304 304 305 304 304 302 300 300 297 291 289 289 289 288 288 288
313 313 313 311 312 312 314 315 319 320 317 322 315 317 319 316 313 313 312 306 302 300 298 297 297 298 300 301 301 303 303 301 300 300 298 298 295 291 290 289 288 287 287 287
317 317 313 311 313 314 313 315 319 323 321 319 312 316 317 314 310 308 309 307 301 299 298 297 296 296 297 299 300 300 300 298 297 298 297 295 293 291 290 289 288 288 287 287
316 316 312 311 314 314 313 316 317 318 302 312 316 314 312 309 308 308 306 304 302 300 298 296 295 295 295 297 298 298 297 296 296 296 294 292 291 291 290 289 288 287 287 286
317 322 313 309 312 311 314 312 318 315 316 317 318 317 320 313 311 306 306 305 302 300 297 295 294 294 295 296 296 296 296 294 294 294 292 292 291 290 290 289 288 287 286 286
315 319 314 310 312 315 313 314 315 317 316 319 318 319 313 315 312 308 306 305 303 300 298 296 295 293 294 295 294 294 293 293 292 292 291 291 290 290 289 289 288 287 286 286
314 318 311 313 310 310 314 314 313 318 318 314 315 321 311 313 310 307 306 305 303 301 299 296 295 293 292 292 292 292 292 291 291 291 290 290 290 289 289 288 287 286 286 285
315 318 319 318 313 310 312 312 315 315 311 317 317 321 308 309 311 306 304 303 302 300 298 296 294 292 292 291 291 290 290 291 291 290 290 289 288 288 288 287 287 286 286 285
316 318 321 323 320 313 313 313 314 316 317 317 319 319 314 311 310 307 304 304 301 300 299 297 294 294 293 291 291 289 290 290 290 289 289 288 288 287 287 287 286 286 285 285
317 320 318 319 318 315 313 313 313 315 316 317 318 317 316 314 309 308 305 303 302 301 299 298 297 294 293 291 290 290 289 289 289 289 288 288 287 287 287 286 286 286 285 285
314 319 318 320 317 317 318 314 313 314 314 314 316 316 313 312 311 306 306 304 303 302 301 299 298 295 293 291 291 290 289 289 289 288 288 287 287 286 286 286 286 285 285 285
314 316 317 323 317 317 320 319 320 315 314 314 316 315 312 313 312 307 305 305 304 303 302 300 298 296 294 292 291 290 289 289 289 288 288 288 287 286 286 286 286 285 285 284
314 316 316 321 318 323 320 316 318 319 317 314 313 315 313 313 312 308 306 305 304 303 302 300 299 297 295 293 292 291 290 289 289 288 288 287 287 286 286 286 286 285 284 284
315 316 318 321 322 320 318 311 315 316 318 316 317 316 314 309 307 306 302 304 305 303 302 301 299 298 295 294 293 291 290 290 289 288 288 288 287 286 286 286 285 285 285 284
313 316 317 316 323 324 318 307 307 312 321 314 315 316 315 306 314 314 302 301 300 299 300 299 299 298 296 294 292 291 289 289 288 288 289 289 288 287 286 286 285 285 285 284
318 318 317 319 323 320 304 298 307 320 316 294 300 307 307 310 312 303 299 299 298 298 298 298 298 297 297 295 293 291 290 289 291 291 290 289 288 288 287 286 286 285 284 284
317 320 322 320 322 324 299 301 314 304 295 296 301 299 299 298 296 297 296 294 294 294 294 296 294 294 296 296 294 292 291 293 293 291 290 289 289 288 287 286 286 285 284 283
315 310 318 317 315 296 296 297 296 295 295 295 298 296 294 294 294 293 293 292 291 291 290 292 291 291 293 295 296 294 295 294 293 292 291 290 289 288 287 286 285 284 283 282
302 299 305 304 299 297 297 298 297 295 293 292 294 296 295 293 292 292 291 289 288 288 288 290 290 289 289 292 293 294 293 292 291 290 289 289 288 287 286 285 285 284 283 281
301 301 299 298 296 296 297 297 297 299 294 291 290 291 293 291 290 290 288 287 287 287 288 289 289 288 289 290 290 290 289 289 289 288 287 286 286 285 285 284 283 282 282 281
297 300 303 305 299 301 301 299 298 298 296 292 291 290 290 290 289 288 287 287 287 287 287 288 288 288 288 288 287 287 287 287 287 286 285 285 284 283 282 281 280 279 278 277
Wind_Speed
2 4 7 12 9 6 3 3 4 4 4 4 9 9 10 10 7 9 10 12 13 13 15 20 17 15 14 15 16 18 19 21 24 26 27 25 24 21 20 19 18 18 17 16
3 8 10 7 7 8 7 7 7 5 4 5 6 11 9 6 9 14 17 15 15 9 11 19 20 19 18 19 18 20 23 24 23 22 21 23 26 20 20 19 17 17 17 17
8 7 6 8 5 6 6 6 5 7 1 3 5 7 8 9 13 8 13 14 14 20 17 13 22 24 21 22 23 24 26 23 20 22 22 26 25 25 23 22 22 21 21 22
9 9 3 5 7 8 7 4 6 5 1 5 4 8 6 7 10 8 18 14 17 14 10 14 20 25 27 25 24 27 27 24 23 23 25 29 32 31 26 27 26 25 23 23
9 8 7 8 7 8 7 3 2 3 3 1 3 5 6 8 11 20 15 14 13 17 18 17 21 27 27 26 27 29 26 25 24 24 26 29 31 31 30 29 28 25 24 23
5 1 6 8 2 3 8 5 6 5 3 3 9 10 4 7 10 9 4 8 15 16 14 15 23 28 28 26 27 28 28 26 24 27 28 31 34 36 34 30 29 26 24 23
2 4 3 5 5 5 4 7 2 3 1 8 4 6 13 10 8 6 10 12 13 15 15 15 16 23 29 28 28 29 28 27 26 28 29 30 34 36 35 33 32 29 26 23
10 6 13 7 9 9 8 9 6 7 5 5 2 7 6 9 9 4 6 11 12 14 14 16 21 23 28 32 32 31 30 29 29 30 30 32 34 34 32 31 29 27 25 23
7 6 3 1 5 12 5 7 3 2 2 1 6 8 8 6 8 2 6 11 17 16 15 15 19 24 27 31 33 33 32 31 30 31 33 34 33 32 31 29 27 26 24 23
5 3 1 1 4 3 7 7 2 1 3 6 5 7 11 6 13 8 9 10 10 12 12 13 17 22 28 33 34 32 34 34 33 33 34 34 33 31 30 29 28 26 24 23
6 5 2 5 8 13 5 5 5 3 5 5 3 7 7 12 14 14 14 14 15 14 14 13 17 23 28 32 35 34 35 35 34 35 35 34 33 30 29 28 27 26 24 23
14 3 4 9 4 5 6 8 7 5 6 4 3 18 3 3 9 9 12 13 13 14 14 12 17 23 26 30 34 36 37 37 37 36 35 33 32 31 30 29 28 26 25 22
10 5 2 4 3 2 6 8 15 5 3 9 5 14 3 2 4 8 10 10 12 14 12 12 16 21 25 27 31 33 38 39 38 37 35 33 32 32 31 29 28 27 25 24
15 6 14 17 5 7 7 12 17 20 8 8 24 24 3 3 6 7 9 11 13 14 15 13 13 21 26 28 30 31 35 40 39 37 36 36 35 34 32 29 29 28 26 25
15 12 9 19 4 7 8 15 20 23 29 13 24 24 21 14 13 13 8 8 11 14 16 18 18 16 25 27 29 32 35 40 41 39 38 37 34 32 30 30 29 27 27 25
5 13 12 17 9 8 8 13 24 25 27 27 29 34 7 9 9 8 12 14 15 16 19 19 17 19 24 29 32 32 33 39 42 40 39 36 33 32 32 31 30 28 28 27
6 9 6 22 10 6 9 37 21 20 21 21 25 36 10 19 18 12 12 15 20 20 21 20 21 22 27 31 32 33 34 37 41 40 37 35 35 34 35 33 31 31 31 29
9 12 5 12 6 12 24 8 27 30 28 23 26 32 16 19 17 13 14 17 18 18 17 17 16 23 27 28 29 28 32 39 40 39 38 37 36 37 35 33 34 33 32 31
18 15 7 9 14 12 20 7 12 13 29 29 29 32 26 10 3 12 11 17 20 19 17 21 30 29 28 34 36 36 36 37 38 39 39 38 39 37 35 36 36 34 33 32
15 18 12 5 9 13 17 4 4 6 21 15 23 28 23 9 11 21 8 8 9 10 18 21 24 27 27 29 35 36 34 35 36 38 39 38 37 36 36 37 36 35 34 34
16 15 18 17 13 7 6 6 6 9 8 3 1 8 5 11 13 1 8 5 6 11 19 23 26 25 27 33 36 30 32 35 38 36 34 33 33 34 33 33 34 34 33 32
14 10 15 13 15 20 5 3 15 4 3 1 1 1 3 4 3 4 7 8 8 9 16 22 21 21 27 32 35 29 32 32 30 29 28 29 29 30 31 31 32 31 31 31
4 2 3 6 3 1 2 2 2 2 2 4 3 3 4 5 3 4 6 7 6 10 15 20 23 24 23 27 31 30 29 26 25 25 27 27 26 28 29 30 30 30 30 31
3 1 1 1 2 2 3 3 1 4 5 5 5 3 3 4 5 6 6 6 6 10 15 20 24 22 22 24 25 24 23 22 24 26 27 26 26 27 26 26 27 29 30 31
2 4 4 1 3 2 6 5 4 3 4 5 6 4 3 4 4 4 5 5 5 12 17 23 23 22 22 22 22 20 17 21 23 25 25 25 25 24 24 25 25 26 28 27
5 6 5 3 5 3 4 10 7 4 3 3 3 2 3 1 4 4 3 5 10 13 17 17 17 18 17 17 18 18 15 18 22 24 23 23 23 23 22 21 20 18 18 18
Wind_Direction
214 124 201 203 199 204 223 208 235 261 219 151 223 249 250 230 218 220 214 198 192 188 174 167 166 162 162 159 159 154 154 152 153 148 144 137 128 128 127 129 133 130 129 125
64 230 225 199 216 225 245 260 265 291 206 170 259 254 257 229 221 213 209 209 196 159 165 162 164 166 170 165 165 161 160 158 156 156 150 145 138 130 129 130 129 130 132 127
177 218 201 194 214 200 221 198 224 219 245 270 293 271 248 249 236 226 226 212 196 179 167 164 169 174 175 174 170 165 159 152 165 167 158 145 137 132 130 130 126 125 126 122
226 229 195 162 214 177 239 207 222 241 184 244 152 285 240 251 265 220 227 199 193 175 160 162 168 174 178 178 175 171 164 170 173 175 167 162 154 143 140 135 129 127 126 123
229 180 186 203 208 168 226 145 147 190 189 330 287 289 266 216 250 252 235 213 179 172 168 170 174 175 177 175 176 173 174 176 178 180 177 167 155 147 142 137 133 130 127 124
202 146 159 191 93 168 149 78 38 39 76 268 221 217 202 233 235 263 233 182 169 166 164 162 166 173 173 173 174 175 178 176 176 172 175 170 160 151 145 143 137 137 135 131
170 210 172 137 93 6 114 103 294 319 323 244 246 239 245 250 240 224 234 184 171 161 158 158 159 164 174 178 178 179 177 173 179 181 178 176 167 159 154 152 150 147 143 136
193 262 172 188 186 172 195 163 167 220 217 260 22 239 251 230 264 281 243 178 158 163 166 167 166 168 175 180 184 183 180 173 174 178 179 176 169 163 160 160 157 154 149 143
179 255 104 93 155 155 199 214 165 52 47 17 224 278 294 227 261 270 172 168 177 173 170 169 169 172 178 184 187 185 180 177 178 178 174 172 171 168 165 165 162 159 154 150
215 239 331 59 89 47 152 157 90 149 212 250 253 249 239 230 240 214 217 196 182 175 170 170 172 173 183 187 187 186 183 179 177 175 175 174 174 174 171 169 168 165 159 159
188 179 300 131 201 174 158 181 202 157 174 207 278 254 215 217 216 201 216 197 188 184 180 177 176 177 184 189 187 186 184 179 176 176 176 175 175 175 175 174 173 170 167 167
204 135 171 208 275 255 198 184 174 170 218 237 187 259 172 173 215 191 211 198 189 184 182 175 173 173 180 185 186 187 186 184 182 180 179 179 178 179 178 179 176 175 174 172
171 215 105 311 352 17 209 202 219 274 51 217 207 266 321 45 205 206 190 188 185 179 175 171 168 178 185 187 187 187 187 188 186 184 184 182 181 181 183 181 180 180 180 179
171 175 210 228 191 151 196 202 208 212 230 221 236 261 236 200 229 221 210 192 182 185 183 181 183 189 190 188 187 186 188 194 189 189 188 187 186 186 186 185 185 185 187 187
170 213 205 248 209 159 186 198 205 210 224 211 250 240 241 233 223 218 196 174 179 188 189 194 192 190 188 186 185 187 192 195 193 192 193 193 191 190 189 191 191 191 193 196
171 232 214 251 230 223 219 211 217 217 229 235 248 255 171 222 236 200 198 189 194 197 200 199 195 190 189 187 189 188 190 194 195 197 198 197 194 192 195 197 195 196 199 201
168 194 166 244 210 245 277 233 226 226 230 223 237 246 213 247 240 227 214 201 200 200 199 195 193 189 188 192 188 189 190 193 196 199 201 199 197 197 201 201 199 203 205 206
187 207 185 252 127 220 244 220 222 229 237 226 246 259 240 242 244 236 214 203 208 207 199 191 182 186 188 186 187 186 189 198 198 202 205 202 201 204 204 204 207 209 210 212
203 197 219 227 223 267 278 155 173 189 244 234 238 250 251 244 158 256 213 210 208 200 193 186 180 177 172 183 190 188 190 196 197 202 205 205 206 206 205 208 213 215 215 219
198 203 199 175 225 229 273 167 179 126 250 193 215 242 244 147 229 253 168 168 158 148 160 160 169 170 171 181 186 183 183 187 196 203 209 209 209 210 210 215 217 220 222 226
200 209 212 223 238 256 209 178 132 169 256 321 253 255 203 203 233 63 133 105 122 141 146 159 161 166 175 184 185 179 180 193 205 209 211 210 211 214 219 221 223 225 225 229
186 201 221 227 234 242 150 68 192 281 355 262 345 260 141 126 52 103 88 102 103 108 125 148 145 157 177 180 183 177 189 202 206 207 208 211 213 216 220 223 226 227 228 231
213 241 204 210 214 6 337 8 24 37 86 360 45 41 114 110 94 80 107 114 120 135 131 149 148 149 162 175 186 186 198 200 200 201 206 209 211 214 217 219 222 223 227 230
213 236 82 185 22 330 336 337 327 39 65 22 19 45 24 100 132 123 134 133 117 121 128 139 143 150 165 179 187 194 191 193 196 199 203 206 208 210 214 218 224 225 225 227
153 139 132 265 263 275 272 243 248 177 122 76 42 20 12 114 112 126 125 116 122 138 146 155 157 164 174 182 190 196 197 195 196 200 200 203 207 212 214 220 225 228 236 239
185 169 170 201 179 211 214 210 202 168 135 121 107 68 38 73 140 119 115 141 148 150 159 162 170 175 176 187 195 202 201 200 199 197 202 208 211 214 218 223 225 233 242 244